Time,TemperatureF,DewpointF,PressureIn,WindDirection,WindDirectionDegrees,WindSpeedMPH,WindSpeedGustMPH,Humidity,HourlyPrecipIn,Conditions,Clouds,dailyrainin,SoftwareType,DateUTC
2013-06-30 10:43:00,72.8,59.5,30.02,NNE,28,0.0,0.0,63,0.00,,,0.00,Wunderground v.1.15,2013-06-30 15:43:00,
2013-06-30 10:48:00,73.0,60.5,30.02,NNE,28,0.0,0.0,65,0.00,,,0.00,Wunderground v.1.15,2013-06-30 15:48:00,
2013-06-30 10:53:00,73.5,60.6,30.02,NNE,28,0.0,0.0,64,0.00,,,0.00,Wunderground v.1.15,2013-06-30 15:53:00,
2013-06-30 10:58:00,74.1,61.6,30.02,NNE,28,0.0,0.0,65,0.00,,,0.00,Wunderground v.1.15,2013-06-30 15:58:00,
2013-06-30 11:03:00,74.7,60.8,30.02,NE,47,0.0,0.0,62,0.00,,,0.00,Wunderground v.1.15,2013-06-30 16:03:00,
2013-06-30 11:08:00,75.2,61.7,30.02,NE,46,0.0,0.0,63,0.00,,,0.00,Wunderground v.1.15,2013-06-30 16:08:00,
2013-06-30 11:13:00,75.7,60.8,30.01,NE,44,0.0,0.0,60,0.00,,,0.00,Wunderground v.1.15,2013-06-30 16:13:00,
2013-06-30 11:23:00,76.4,59.5,30.02,NNE,26,0.0,0.0,56,0.00,,,0.00,Wunderground v.1.15,2013-06-30 16:23:00,
2013-06-30 11:33:00,76.9,59.5,30.01,NNE,26,1.0,3.0,55,0.00,,,0.00,Wunderground v.1.15,2013-06-30 16:33:00,
2013-06-30 11:43:00,77.1,58.6,30.02,ENE,65,1.0,1.0,53,0.00,,,0.00,Wunderground v.1.15,2013-06-30 16:43:00,
2013-06-30 11:53:00,77.6,59.6,30.02,NE,45,0.0,1.0,54,0.00,,,0.00,Wunderground v.1.15,2013-06-30 16:53:00,
2013-06-30 12:03:00,78.0,60.0,30.02,NE,53,0.0,0.0,54,0.00,,,0.00,Wunderground v.1.15,2013-06-30 17:03:00,
2013-06-30 12:13:00,78.2,59.1,30.02,NE,52,0.0,0.0,52,0.00,,,0.00,Wunderground v.1.15,2013-06-30 17:13:00,
2013-06-30 12:23:00,78.3,58.7,30.02,ENE,64,1.0,8.0,51,0.00,,,0.00,Wunderground v.1.15,2013-06-30 17:23:00,
2013-06-30 12:33:00,78.7,59.0,30.01,NE,53,1.0,1.0,51,0.00,,,0.00,Wunderground v.1.15,2013-06-30 17:33:00,
2013-06-30 12:43:00,79.1,59.4,30.01,NE,49,0.0,0.0,51,0.00,,,0.00,Wunderground v.1.15,2013-06-30 17:43:00,
2013-06-30 12:53:00,79.6,57.6,30.02,NE,49,1.0,2.0,47,0.00,,,0.00,Wunderground v.1.15,2013-06-30 17:53:00,
2013-06-30 13:03:00,79.9,56.7,30.01,NE,53,1.0,1.0,45,0.00,,,0.00,Wunderground v.1.15,2013-06-30 18:03:00,
2013-06-30 13:13:00,80.4,58.3,30.01,NE,36,0.0,0.0,47,0.00,,,0.00,Wunderground v.1.15,2013-06-30 18:13:00,
2013-06-30 13:23:00,80.5,55.9,30.01,North,360,1.0,1.0,43,0.00,,,0.00,Wunderground v.1.15,2013-06-30 18:23:00,
2013-06-30 13:33:00,80.6,56.0,30.01,NNE,21,1.0,1.0,43,0.00,,,0.00,Wunderground v.1.15,2013-06-30 18:33:00,
2013-06-30 13:43:00,80.7,56.1,30.01,NNE,17,0.0,1.0,43,0.00,,,0.00,Wunderground v.1.15,2013-06-30 18:43:00,
2013-06-30 13:53:00,81.2,57.2,30.01,NNE,33,0.0,1.0,44,0.00,,,0.00,Wunderground v.1.15,2013-06-30 18:53:00,
2013-06-30 14:03:00,81.4,56.8,30.01,NNE,19,1.0,1.0,43,0.00,,,0.00,Wunderground v.1.15,2013-06-30 19:03:00,
2013-06-30 14:13:00,81.6,60.0,30.01,NE,48,1.0,1.0,48,0.00,,,0.00,Wunderground v.1.15,2013-06-30 19:13:00,
2013-06-30 14:23:00,82.0,57.3,30.01,ENE,62,0.0,0.0,43,0.00,,,0.00,Wunderground v.1.15,2013-06-30 19:23:00,
2013-06-30 14:33:00,82.4,57.7,30.01,NE,48,0.0,0.0,43,0.00,,,0.00,Wunderground v.1.15,2013-06-30 19:33:00,
2013-06-30 14:43:00,82.8,57.4,30.01,NNE,21,1.0,1.0,42,0.00,,,0.00,Wunderground v.1.15,2013-06-30 19:43:00,
2013-06-30 14:53:00,83.1,58.3,30.00,NNE,22,1.0,6.0,43,0.00,,,0.00,Wunderground v.1.15,2013-06-30 19:53:00,
2013-06-30 15:03:00,83.4,58.6,30.00,NE,51,1.0,1.0,43,0.00,,,0.00,Wunderground v.1.15,2013-06-30 20:03:00,
2013-06-30 15:13:00,83.3,56.5,30.00,North,360,0.0,1.0,40,0.00,,,0.00,Wunderground v.1.15,2013-06-30 20:13:00,
2013-06-30 15:23:00,83.5,58.0,30.00,NE,39,1.0,1.0,42,0.00,,,0.00,Wunderground v.1.15,2013-06-30 20:23:00,
2013-06-30 15:33:00,83.4,56.5,30.00,NNE,33,0.0,0.0,40,0.00,,,0.00,Wunderground v.1.15,2013-06-30 20:33:00,
2013-06-30 15:43:00,83.8,56.9,30.00,NE,46,1.0,1.0,40,0.00,,,0.00,Wunderground v.1.15,2013-06-30 20:43:00,
2013-06-30 15:53:00,84.0,57.8,30.00,North,9,1.0,1.0,41,0.00,,,0.00,Wunderground v.1.15,2013-06-30 20:53:00,
2013-06-30 16:03:00,83.5,55.9,30.00,West,260,0.0,0.0,39,0.00,,,0.00,Wunderground v.1.15,2013-06-30 21:03:00,
2013-06-30 16:13:00,83.0,56.9,30.00,ENE,65,0.0,0.0,41,0.00,,,0.00,Wunderground v.1.15,2013-06-30 21:13:00,
2013-06-30 16:23:00,83.4,56.5,30.00,NNE,13,0.0,0.0,40,0.00,,,0.00,Wunderground v.1.15,2013-06-30 21:23:00,
2013-06-30 16:33:00,82.7,54.5,30.00,NNE,32,0.0,0.0,38,0.00,,,0.00,Wunderground v.1.15,2013-06-30 21:33:00,
2013-06-30 16:43:00,81.5,55.5,30.00,North,360,0.0,0.0,41,0.00,,,0.00,Wunderground v.1.15,2013-06-30 21:43:00,
2013-06-30 16:53:00,81.1,55.2,30.00,SE,140,0.0,1.0,41,0.00,,,0.00,Wunderground v.1.15,2013-06-30 21:53:00,
2013-06-30 17:03:00,80.8,56.2,30.00,ESE,111,0.0,1.0,43,0.00,,,0.00,Wunderground v.1.15,2013-06-30 22:03:00,
2013-06-30 17:13:00,80.9,56.3,30.00,NNE,12,0.0,0.0,43,0.00,,,0.00,Wunderground v.1.15,2013-06-30 22:13:00,
2013-06-30 17:23:00,80.3,55.8,30.00,NE,51,0.0,0.0,43,0.00,,,0.00,Wunderground v.1.15,2013-06-30 22:23:00,
2013-06-30 17:33:00,80.0,56.1,30.00,NE,46,0.0,0.0,44,0.00,,,0.00,Wunderground v.1.15,2013-06-30 22:33:00,
2013-06-30 17:43:00,79.0,55.2,30.00,East,84,0.0,0.0,44,0.00,,,0.00,Wunderground v.1.15,2013-06-30 22:43:00,
2013-06-30 17:53:00,78.4,54.7,30.00,ESE,113,0.0,0.0,44,0.00,,,0.00,Wunderground v.1.15,2013-06-30 22:53:00,
2013-06-30 18:03:00,77.9,54.2,30.00,NNE,30,0.0,0.0,44,0.00,,,0.00,Wunderground v.1.15,2013-06-30 23:03:00,
2013-06-30 18:13:00,77.6,55.2,30.00,NNE,30,0.0,0.0,46,0.00,,,0.00,Wunderground v.1.15,2013-06-30 23:13:00,
2013-06-30 18:23:00,77.6,54.6,30.00,NNE,30,0.0,0.0,45,0.00,,,0.00,Wunderground v.1.15,2013-06-30 23:23:00,
2013-06-30 18:33:00,77.7,55.3,30.00,NNE,30,0.0,0.0,46,0.00,,,0.00,Wunderground v.1.15,2013-06-30 23:33:00,
2013-06-30 18:43:00,77.7,55.3,30.01,NNE,28,1.0,1.0,46,0.00,,,0.00,Wunderground v.1.15,2013-06-30 23:43:00,
2013-06-30 18:53:00,77.5,55.1,30.01,NE,52,0.0,0.0,46,0.00,,,0.00,Wunderground v.1.15,2013-06-30 23:53:00,
2013-06-30 19:03:00,77.3,54.3,30.01,NE,51,0.0,0.0,45,0.00,,,0.00,Wunderground v.1.15,2013-07-01 00:03:00,
2013-06-30 19:13:00,77.1,54.7,30.01,NE,51,0.0,0.0,46,0.00,,,0.00,Wunderground v.1.15,2013-07-01 00:13:00,
2013-06-30 19:23:00,76.9,54.5,30.01,NE,50,0.0,0.0,46,0.00,,,0.00,Wunderground v.1.15,2013-07-01 00:23:00,
2013-06-30 19:33:00,76.6,54.3,30.01,NE,49,0.0,0.0,46,0.00,,,0.00,Wunderground v.1.15,2013-07-01 00:33:00,
2013-06-30 19:43:00,76.3,52.2,30.01,NNE,26,1.0,1.0,43,0.00,,,0.00,Wunderground v.1.15,2013-07-01 00:43:00,
2013-06-30 19:53:00,76.0,52.5,30.01,NNE,26,0.0,0.0,44,0.00,,,0.00,Wunderground v.1.15,2013-07-01 00:53:00,
2013-06-30 20:03:00,75.7,53.4,30.01,NNE,27,0.0,0.0,46,0.00,,,0.00,Wunderground v.1.15,2013-07-01 01:03:00,
2013-06-30 20:13:00,75.2,52.4,30.01,NNE,26,0.0,0.0,45,0.00,,,0.00,Wunderground v.1.15,2013-07-01 01:13:00,
2013-06-30 20:23:00,74.9,52.7,30.01,NNE,27,0.0,0.0,46,0.00,,,0.00,Wunderground v.1.15,2013-07-01 01:23:00,
2013-06-30 20:33:00,74.4,52.9,30.01,NNE,27,0.0,0.0,47,0.00,,,0.00,Wunderground v.1.15,2013-07-01 01:33:00,
2013-06-30 20:43:00,73.8,52.9,30.02,NNE,27,0.0,0.0,48,0.00,,,0.00,Wunderground v.1.15,2013-07-01 01:43:00,
2013-06-30 20:53:00,73.1,52.8,30.02,NNE,26,0.0,0.0,49,0.00,,,0.00,Wunderground v.1.15,2013-07-01 01:53:00,
2013-06-30 21:03:00,72.4,52.2,30.02,NNE,27,0.0,0.0,49,0.00,,,0.00,Wunderground v.1.15,2013-07-01 02:03:00,
2013-06-30 21:13:00,71.5,52.4,30.02,NNE,27,0.0,0.0,51,0.00,,,0.00,Wunderground v.1.15,2013-07-01 02:13:00,
2013-06-30 21:23:00,70.6,52.1,30.02,NNE,26,0.0,0.0,52,0.00,,,0.00,Wunderground v.1.15,2013-07-01 02:23:00,
2013-06-30 21:33:00,70.0,51.6,30.03,NNE,27,0.0,0.0,52,0.00,,,0.00,Wunderground v.1.15,2013-07-01 02:33:00,
2013-06-30 21:43:00,69.2,52.3,30.03,NNE,27,0.0,0.0,55,0.00,,,0.00,Wunderground v.1.15,2013-07-01 02:43:00,
2013-06-30 21:53:00,68.3,52.0,30.04,NNE,27,0.0,0.0,56,0.00,,,0.00,Wunderground v.1.15,2013-07-01 02:53:00,
2013-06-30 22:03:00,67.5,52.2,30.04,NNE,27,0.0,0.0,58,0.00,,,0.00,Wunderground v.1.15,2013-07-01 03:03:00,
2013-06-30 22:13:00,66.8,52.0,30.04,NNE,27,0.0,0.0,59,0.00,,,0.00,Wunderground v.1.15,2013-07-01 03:13:00,
2013-06-30 22:23:00,66.2,51.9,30.05,NNE,27,0.0,0.0,60,0.00,,,0.00,Wunderground v.1.15,2013-07-01 03:23:00,
2013-06-30 22:33:00,65.7,51.9,30.05,NNE,27,0.0,0.0,61,0.00,,,0.00,Wunderground v.1.15,2013-07-01 03:33:00,
2013-06-30 22:43:00,65.2,51.4,30.05,NNE,27,0.0,0.0,61,0.00,,,0.00,Wunderground v.1.15,2013-07-01 03:43:00,
2013-06-30 22:53:00,64.8,50.6,30.05,NNE,27,0.0,0.0,60,0.00,,,0.00,Wunderground v.1.15,2013-07-01 03:53:00,
2013-06-30 23:03:00,64.5,50.7,30.05,NNE,26,0.0,0.0,61,0.00,,,0.00,Wunderground v.1.15,2013-07-01 04:03:00,
2013-06-30 23:08:00,64.3,51.0,30.05,NNE,27,0.0,0.0,62,0.00,,,0.00,Wunderground v.1.15,2013-07-01 04:08:00,
2013-06-30 23:13:00,64.1,50.8,30.05,NNE,26,0.0,0.0,62,0.00,,,0.00,Wunderground v.1.15,2013-07-01 04:13:00,
2013-06-30 23:23:00,63.8,51.0,30.06,NNE,27,0.0,0.0,63,0.00,,,0.00,Wunderground v.1.15,2013-07-01 04:23:00,
2013-06-30 23:33:00,63.5,51.5,30.06,NNE,26,0.0,0.0,65,0.00,,,0.00,Wunderground v.1.15,2013-07-01 04:33:00,
2013-06-30 23:43:00,63.3,51.7,30.06,NNE,27,0.0,0.0,66,0.00,,,0.00,Wunderground v.1.15,2013-07-01 04:43:00,
2013-06-30 23:48:00,63.1,51.6,30.06,NNE,27,0.0,0.0,66,0.00,,,0.00,Wunderground v.1.15,2013-07-01 04:48:00,
2013-06-30 23:53:00,63.0,51.0,30.06,NNE,27,0.0,0.0,65,0.00,,,0.00,Wunderground v.1.15,2013-07-01 04:53:00,